Regional Weather Roundup
Issued by NWS

Home | Current Version | Previous Version | Graphics & Text | Print | Product List | Glossary Off
Versions: 1 2 3 4 5 6 7 8 9 10 11 12 13 14 15 16 17 18 19 20 21 22 23 24 25 26 27 28 29 30 31 32 33 34 35 36 37 38 39 40 41 42 43 44 45 46 47 48 49 50

000
ASUS43 KLSX 280559
RWRMO

WEATHER SUMMARY FOR MISSOURI
NATIONAL WEATHER SERVICE SPRINGFIELD MO
100 AM CDT TUE APR 28 2015

NOTE: "FAIR" INDICATES FEW OR NO CLOUDS BELOW 12,000 FEET WITH NO
       SIGNIFICANT WEATHER AND/OR OBSTRUCTIONS TO VISIBILITY.
       CURRENT SKY AND/OR WEATHER CONDITIONS ARE NOT AVAILABLE FOR
       CHILLICOTHE AND FARMINGTON.

MOZ001>031-035>038-043-044-053-054-280700-
...NORTHERN AND WESTERN MISSOURI...

CITY           SKY/WX    TMP DP  RH WIND       PRES   REMARKS
KANSAS CTY INT PTCLDY    51  36  56 NE5       30.14R
6HR MIN TEMP:  51; 6HR MAX TEMP:  63;

KANSAS C DTWN  PTCLDY    54  36  50 NE3       30.13R
6HR MIN TEMP:  53; 6HR MAX TEMP:  64;

LEE`S SUMMIT   MOCLDY    51  37  58 NE6       30.13R
6HR MIN TEMP:  51; 6HR MAX TEMP:  63;

ST JOSEPH      PTCLDY    45  38  76 N6        30.15R
6HR MIN TEMP:  45; 6HR MAX TEMP:  65;

CHILLICOTHE      N/A     48  39  71 CALM      30.16R
6HR MIN TEMP:  46; 6HR MAX TEMP:  66;

KIRKSVILLE     CLEAR     47  37  68 N5        30.14R
6HR MIN TEMP:  45; 6HR MAX TEMP:  62;


$$
MOZ066>068-077>081-088>096-101>105-280700-
...SOUTHWEST MISSOURI...

CITY           SKY/WX    TMP DP  RH WIND       PRES   REMARKS
SPRINGFIELD    CLOUDY    51  37  58 NE6       30.07R
6HR MIN TEMP:  51; 6HR MAX TEMP:  62;

JOPLIN         MOCLDY    51  39  63 NE5       30.07F
6HR MIN TEMP:  50; 6HR MAX TEMP:  62;


$$
MOZ032>034-039>042-045>050-055>058-069>072-280700-
...CENTRAL MISSOURI...

CITY           SKY/WX    TMP DP  RH WIND       PRES   REMARKS
COLUMBIA       CLEAR     49  38  65 NE6       30.11R
6HR MIN TEMP:  49; 6HR MAX TEMP:  64;

JEFFERSON CITY CLEAR     48  38  68 CALM      30.11R
6HR MIN TEMP:  47; 6HR MAX TEMP:  65;

ROLLA          CLEAR     45  36  70 NE5       30.08R
6HR MIN TEMP:  45; 6HR MAX TEMP:  61;

SEDALIA        CLEAR     50  36  58 N5        30.13R
6HR MIN TEMP:  50; 6HR MAX TEMP:  63;

OSAGE BEACH    PTCLDY    46  34  61 CALM      30.10R

$$
MOZ051-052-059>065-280700-
...EAST CENTRAL MISSOURI...

CITY           SKY/WX    TMP DP  RH WIND       PRES   REMARKS
ST LOUIS INTL  CLEAR     51  38  60 E5        30.11R
6HR MIN TEMP:  51; 6HR MAX TEMP:  64;

SPIRIT OF STL  CLEAR     42  40  92 CALM      30.10R
6HR MIN TEMP:  42; 6HR MAX TEMP:  62;

ST CHARLES     CLEAR     48  39  71 NE7       30.11R
6HR MIN TEMP:  48; 6HR MAX TEMP:  62;


$$
MOZ072>076-082>087-097>100-106>115-280700-
...SOUTH CENTRAL AND SOUTHEAST MISSOURI...

CITY           SKY/WX    TMP DP  RH WIND       PRES   REMARKS
CAPE GIRARDEAU PTCLDY    53  39  59 NE14      30.06R
6HR MIN TEMP:  53; 6HR MAX TEMP:  62;

FARMINGTON     PTCLDY    46  37  71 NE6       30.12R
6HR MIN TEMP:  46; 6HR MAX TEMP:  61;

POPLAR BLUFF   CLEAR     53  41  63 NE7       30.04R
6HR MIN TEMP:  53; 6HR MAX TEMP:  62;

WEST PLAINS    PTCLDY    50  35  56 NE3       30.06R
6HR MIN TEMP:  49; 6HR MAX TEMP:  61;


$$



USA.gov is the U.S. government's official web portal to all federal, state and local government web resources and services.